Location: Hains Lake
(37.8540°N, 99.8578°W)
Time: 23:42:11
(UTC+00:00)

Cosmos 1655 Rocket - Pass Details

Date: 11 December 2019
Orbit: 970 x 1006 km, 83.0° (Epoch: 24 January)

Event Time Altitude Azimuth Distance (km) Brightness Sun altitude
Rises 12:23:10 0° 355° (N) 3,673 6.8 -15.6°
Reaches altitude 10° 12:25:43 10° 358° (N) 2,721 6.1 -15.2°
Maximum altitude 12:31:55 69° 82° (E) 1,035 4.3 -14.0°
Drops below altitude 10° 12:38:05 10° 165° (SSE) 2,709 6.8 -12.8°
Sets 12:40:36 0° 168° (SSE) 3,656 7.5 -12.4°
